Simultaneous Nadir Overpasses (SNOs) Predictions

Prediction of SNOs between TERRA and METOP-C Satellite Orbit:

Table of predicted SNOs for the next 14.0 days since TLE Epoch: 3/20/2021
Index Date (TERRA) Time (TERRA) Lat,Lon (TERRA) SZA (TERRA ) Date (METOP-C) Time (METOP-C) Lat,Lon (METOP-C) SZA (METOP-C ) Distance(km) Time Diff (sec)
1 03/22/2021 21:10:55 -81.29, 88.61 97.20 03/22/2021 21:10:45 -81.29, 88.73 97.19 2.12 10
2 03/22/2021 22:00:21 81.30,-103.66 82.81 03/22/2021 22:01:25 81.30,-103.63 82.84 0.54 64
3 03/25/2021 15:55:43 81.25, -13.33 81.63 03/25/2021 15:54:29 81.27, -13.24 81.63 2.90 74
4 03/25/2021 16:45:08 -81.29, 155.00 98.28 03/25/2021 16:45:07 -81.29, 155.16 98.26 2.67 1
5 03/25/2021 17:34:34 81.29, -37.29 81.72 03/25/2021 17:35:47 81.30, -37.18 81.77 1.98 73
6 03/28/2021 11:29:54 81.29, 53.75 80.66 03/28/2021 11:28:50 81.28, 53.60 80.60 2.78 64
7 03/28/2021 12:19:21 -81.29,-138.64 99.37 03/28/2021 12:19:30 -81.29,-138.82 99.38 2.93 9
8 03/31/2021 07:04:07 81.28, 120.05 79.57 03/31/2021 07:03:12 81.28, 120.02 79.54 0.46 55
9 03/31/2021 07:53:34 -81.28, -72.32 100.45 03/31/2021 07:53:52 -81.29, -72.41 100.45 1.68 18
10 04/03/2021 02:38:18 81.29,-173.31 78.54 04/03/2021 02:37:32 81.29,-173.17 78.54 2.33 46



Historial Predications of SNOs between TERRA and METOP-C
